Weather Roundup
Issued by NWS

Home | Current Version | Previous Version | Graphics & Text | Print | Product List | Glossary Off
Versions: 1 2 3 4 5 6 7 8 9 10 11 12 13 14 15 16 17 18 19 20 21 22 23 24 25 26 27 28 29 30 31 32 33 34 35 36 37 38 39 40 41 42 43 44 45 46 47 48 49 50

000
NZUS93 KARX 171310
HRRWXR

CURRENT HOURLY OBSERVATIONS ACROSS
MUCH OF THE UPPER MISSISSIPPI VALLEY
NATIONAL WEATHER SERVICE LA CROSSE WI
800 AM CDT WED SEP 17 2014


...SOUTHEAST MINNESOTA...


CITY           SKY/WX    TMP DP  RH WIND       PRES   REMARKS
ROCHESTER      CLOUDY    50  47  89 S6        29.99S
ROCHESTER/MAYO CLOUDY    52  46  77 SE6       29.99S
WINONA         CLOUDY    52  50  93 SE5       29.99S
AUSTIN         CLOUDY    48  46  93 CALM      29.98S
ALBERT LEA     MOSUNNY   52  50  93 S3        29.97F
DODGE CENTER   PTSUNNY   52  48  87 S6        29.98S
PRESTON        CLOUDY    49  49  99 S5        30.00S
OWATONNA       PTSUNNY   54  46  76 S5        29.97S
FARIBAULT      CLOUDY    55  46  71 S3        29.97S
$$

...ELSEWHERE IN MINNESOTA...


CITY           SKY/WX    TMP DP  RH WIND       PRES   REMARKS
MINNEAPOLIS    PTSUNNY   56  49  77 S6        29.96R
INTNL FALLS    LGT RAIN  49  46  90 NE8       29.94R
DULUTH         MOSUNNY   52  43  71 W9        29.93R
RED WING       PTSUNNY   55  50  82 CALM      29.97R
REDWOOD FALLS  CLEAR     52  50  93 SE6       29.93R
MANKATO        SUNNY     52  45  76 S6        29.96R
WORTHINGTON    PTCLDY    52  48  87 S3        29.95R
FAIRMONT       MOSUNNY   52  45  76 S7        29.95S
$$

...SOUTHWEST WISCONSIN...


CITY           SKY/WX    TMP DP  RH WIND       PRES   REMARKS
LA CROSSE      CLOUDY    52  48  86 SE7       30.00F
PRAIRIE DU CHI CLOUDY    45  44  96 CALM      30.02R FOG
BOSCOBEL       FOG       46  44  93 CALM      30.04R VSB<1/4
LONE ROCK      CLOUDY    46  42  86 CALM      30.04S
PLATTEVILLE    CLOUDY    50  46  86 CALM      30.03F
FORT MC COY    CLOUDY    42  42  98 CALM      30.02S
CAMP DOUGLAS   PTSUNNY   46  46 100 SE3       30.01S
VIROQUA        CLOUDY    50  46  87 S5        30.02S
WIS DELLS      PTSUNNY   49  45  88 CALM      30.02S
$$

...ELSEWHERE IN WISCONSIN...


CITY           SKY/WX    TMP DP  RH WIND       PRES   REMARKS
MILWAUKEE      MOSUNNY   52  45  77 CALM      30.05R
MADISON        MOSUNNY   47  44  90 CALM      30.03S
GREEN BAY      SUNNY     48  46  93 SW3       30.01S
EAU CLAIRE     MOSUNNY   47  45  93 CALM      29.98R
BLACK RVR FLS  CLOUDY    42  42 100 CALM      30.00S
MEDFORD        PTSUNNY   46  44  93 SW3       29.98S
WAUSAU         CLOUDY    46  43  89 SE7       29.98S
WIS RAPIDS     MOSUNNY   45  44  97 CALM      30.02S
MARSHFIELD     CLOUDY    45  43  93 CALM      30.00R
RICE LAKE      CLOUDY    46  45  96 CALM      29.99R
$$

...NORTHEAST IOWA...


CITY           SKY/WX    TMP DP  RH WIND       PRES   REMARKS
WATERLOO       SUNNY     50  47  89 E5        29.99F
DUBUQUE        CLOUDY    50  47  89 CALM      30.02F
DECORAH        CLOUDY    48  46  93 CALM      30.00S
MASON CITY     PTSUNNY   49  47  93 S3        30.00R
CHARLES CITY   CLOUDY    50  46  87 SE5       30.00S
OELWEIN        MOSUNNY   50  48  93 SE6       30.01S
$$

...ELSEWHERE IN IOWA...


CITY           SKY/WX    TMP DP  RH WIND       PRES   REMARKS
DES MOINES     CLOUDY    58  51  78 SE7       29.96S
IOWA CITY      CLOUDY    51  49  92 CALM      30.01F
FORT DODGE     CLOUDY    50  48  93 E5        29.96S
MARSHALLTOWN   SUNNY     49  47  93 E7        29.98S
CEDAR RAPIDS   CLOUDY    49  47  93 E5        29.99F
$$

...NORTHERN ILLINOIS...


CITY           SKY/WX    TMP DP  RH WIND       PRES   REMARKS
CHICAGO-OHARE  PTSUNNY   52  47  83 CALM      30.05S
DUPAGE         SUNNY     48  46  93 CALM      30.05S
CHICAGO-MIDWAY PTSUNNY   53  47  79 CALM      30.05F
MOLINE         MOSUNNY   49  47  93 E3        30.03S
ROCKFORD       MOSUNNY   47  43  86 CALM      30.07S
STERLING       SUNNY     46  43  87 CALM      30.04S
PEORIA         PTSUNNY   53  49  86 S6        30.03F
$$

NOTE: "FAIR" INDICATES FEW OR NO CLOUDS BELOW 12,000 FEET WITH NO
SIGNIFICANT WEATHER AND/OR OBSTRUCTIONS TO VISIBILITY. WIND
SPEEDS ARE IN MILES-PER-HOUR.



USA.gov is the U.S. government's official web portal to all federal, state and local government web resources and services.